Greeley, CO

12:48 PM MDT on October 17, 2019 (GMT -0600)
Greeley-Weld County

Weather History for KGXY - September, 2019

Change the Weather History Date:

Friday, September 20, 2019

  Actual Average Record
Temperature  
Mean Temperature 70 °F -  
Max Temperature 88 °F - 93 °F (2010)
Min Temperature 53 °F - 28 °F (1983)
Degree Days  
Heating Degree Days 0    
Month to date heating degree days 8  
Cooling Degree Days 6    
Month to date cooling degree days 105  
Growing Degree Days 20 (Base 50)    
Moisture  
Dew Point 46 °F    
Average Humidity 51    
Maximum Humidity 93    
Minimum Humidity 17    
Precipitation  
Precipitation 0.00 in - 0.46 in (1980)
Snow  
Snow 0.00 in - - ()
Snow Depth 0.00 in    
Sea Level Pressure  
Sea Level Pressure 29.68 in    
Wind  
Wind Speed 7 mph ()    
Max Wind Speed 18 mph    
Max Gust Speed 22 mph    
Visibility 9.8 miles    
Events      
T = Trace of Precipitation, MM = Missing Value Source: Averaged Metar Reports

Daily Weather History Graph

Daily Weather History Graph

Search for Another Location

Airport or City:

Astronomy

Sep. 20, 2019 Rise Set
Actual Time 6:43 AM MDT 6:59 PM MDT
Civil Twilight 6:16 AM MDT 7:26 PM MDT
Nautical Twilight 5:44 AM MDT 7:58 PM MDT
Astronomical Twilight 5:12 AM MDT 8:30 PM MDT
Moon 10:49 PM MDT (9/20) 12:52 PM MDT (9/20)
Length of Visible Light 13h 09m
Length of Day
12h 15m
Waning Gibbous, 64% of the Moon is Illuminated
Sep 20
Waning Gibbous
Sep 21
Last Quarter
Sep 28
New
Oct 5
First Quarter
Oct 13
Full

Hourly Weather History & Observations

Time (MDT) Temp. Dew Point Humidity Pressure Visibility Wind Dir Wind Speed Gust Speed Precip Events Conditions
12:56 AM 66.9 °F 55.0 °F 66% 29.75 in 10.0 mi SSE 16.1 mph 21.9 mph N/A   Clear
1:56 AM 64.0 °F 55.0 °F 73% 29.74 in 10.0 mi East 9.2 mph - N/A   Clear
2:56 AM 62.1 °F 54.0 °F 75% 29.72 in 10.0 mi East 8.1 mph - N/A   Clear
3:56 AM 59.0 °F 54.0 °F 83% 29.70 in 10.0 mi East 6.9 mph - N/A   Clear
4:56 AM 57.0 °F 53.1 °F 87% 29.71 in 10.0 mi ESE 8.1 mph - N/A   Clear
5:56 AM 57.0 °F 54.0 °F 89% 29.71 in 10.0 mi NNW 3.5 mph - N/A   Clear
6:56 AM 53.1 °F 51.1 °F 93% 29.75 in 10.0 mi North 3.5 mph - N/A   Clear
7:56 AM 57.9 °F 54.0 °F 87% 29.75 in 10.0 mi NNE 6.9 mph - N/A   Clear
8:56 AM 62.1 °F 55.0 °F 78% 29.75 in 10.0 mi Calm Calm - N/A   Clear
9:56 AM 66.9 °F 55.9 °F 68% 29.72 in 10.0 mi WNW 4.6 mph - N/A   Clear
10:56 AM 72.0 °F 55.9 °F 57% 29.69 in 10.0 mi Calm Calm - N/A   Clear
11:56 AM 79.0 °F 53.1 °F 40% 29.67 in 10.0 mi SSW 8.1 mph - N/A   Clear
12:56 PM 82.9 °F 48.9 °F 31% 29.64 in 10.0 mi Calm Calm - N/A   Clear
1:56 PM 84.9 °F 37.9 °F 19% 29.61 in 6.0 mi Calm Calm - N/A   Haze
2:56 PM 84.9 °F 39.0 °F 20% 29.59 in 10.0 mi ENE 4.6 mph - N/A   Clear
3:56 PM 87.1 °F 37.9 °F 18% 29.57 in 10.0 mi ENE 5.8 mph - N/A   Clear
4:56 PM 84.0 °F 37.0 °F 19% 29.57 in 9.0 mi South 10.4 mph 16.1 mph N/A   Clear
5:56 PM 82.0 °F 37.0 °F 20% 29.56 in 10.0 mi WNW 5.8 mph - N/A   Clear
6:56 PM 73.9 °F 41.0 °F 30% 29.60 in 9.0 mi NNE 5.8 mph - N/A   Clear
7:56 PM 70.0 °F 44.1 °F 39% 29.63 in 10.0 mi North 10.4 mph - N/A   Clear
8:56 PM 66.0 °F 45.0 °F 47% 29.69 in 10.0 mi NNW 8.1 mph - N/A   Partly Cloudy
9:56 PM 70.0 °F 36.0 °F 29% 29.70 in 10.0 mi North 16.1 mph - N/A   Clear
10:56 PM 68.0 °F 30.0 °F 24% 29.73 in 10.0 mi North 18.4 mph - N/A   Clear
11:56 PM 64.0 °F 30.0 °F 28% 29.75 in 10.0 mi North 15.0 mph - N/A   Clear